Location: Myrnam
(53.6612°N, 111.2289°W)
Time: 13:59:33
(UTC+00:00)

SO-50 - Pass Details

Date: 08 December 2023
Orbit: 607 x 661 km, 64.6° (Epoch: 21 February)

Event Time Altitude Azimuth Distance (km) Brightness Sun altitude
Exits shadow 10:54:45 11° 47° (NE) 1,968 ? -38.9°
Drops below altitude 10° 10:54:57 10° 47° (NE) 2,048 ? -38.9°
Sets 10:57:14 0° 46° (NE) 2,951 ? -38.6°
